FW9243 Weather Reports


time (UTC)temp
F
wind
direction
speed
knots
gust
knots
rain 1hr
in
rain 24hr
in
rain mn
in
humidity
%
barometer
mb
20260505002050 49 197 0.9 2.6 0.00 0.07 0.00 93 1016.0
20260505001551 49 178 0.9 1.7 0.00 0.07 0.00 93 1016.0
20260505001534 52 178 0.0 0.9 0.00 0.11 0.00 100 1016.3
20260505001050 49 161 0.9 0.9 0.00 0.07 0.00 93 1016.0
20260505000550 49 45 0.9 0.9 0.00 0.07 0.00 93 1016.1
20260505000050 49 206 0.9 1.7 0.00 0.07 0.00 93 1016.1
20260505000037 52 178 0.0 0.9 0.00 0.11 0.00 100 1016.4
20260504235550 49 178 0.9 1.7 0.00 0.07 0.00 93 1016.1
20260504235049 49 165 0.0 2.6 0.00 0.07 0.00 93 1016.2
20260504234551 49 241 0.0 2.6 0.00 0.07 0.00 93 1016.1
20260504234535 52 165 0.0 1.7 0.00 0.11 0.00 100 1016.4
20260504234311 49 165 0.9 1.7 0.00 0.07 0.00 93 1016.1
20260504233551 49 269 0.0 0.9 0.00 0.07 0.00 93 1016.2
20260504233049 49 178 0.9 0.9 0.00 0.07 0.00 93 1016.1
20260504233035 52 265 0.0 0.9 0.00 0.11 0.00 100 1016.5
20260504232550 49 213 0.0 1.7 0.00 0.07 0.00 93 1016.2
20260504232306 49 269 0.9 1.7 0.00 0.07 0.00 93 1016.1
20260504231550 49 178 0.0 1.7 0.00 0.07 0.00 93 1016.2
20260504231539 52 0 0.0 0.9 0.00 0.11 0.00 100 1016.5
20260504231049 49 223 0.0 0.9 0.00 0.07 0.00 93 1016.3
20260504230549 49 45 0.9 0.9 0.00 0.07 0.00 93 1016.2
20260504230049 49 178 0.9 2.6 0.00 0.07 0.00 93 1016.3
20260504230035 52 221 0.0 1.7 0.00 0.11 0.00 100 1016.6
20260504225550 49 161 0.9 2.6 0.00 0.07 0.00 92 1016.3
20260504225048 49 152 1.7 2.6 0.00 0.07 0.00 92 1016.2
20260504224808 49 145 0.9 1.7 0.00 0.07 0.00 92 1016.3
20260504224533 52 162 0.0 0.9 0.00 0.11 0.00 100 1016.6
20260504224048 49 178 0.9 0.9 0.00 0.07 0.00 92 1016.3
20260504223550 50 145 0.0 0.9 0.00 0.07 0.00 92 1016.3
20260504223048 50 152 0.0 0.9 0.00 0.07 0.00 92 1016.3
20260504223041 52 0 0.0 0.9 0.00 0.11 0.00 100 1016.7
20260504222549 50 45 0.0 0.9 0.00 0.07 0.00 92 1016.4
20260504222048 50 178 0.0 0.9 0.00 0.07 0.00 92 1016.4
20260504221549 50 193 0.9 0.9 0.00 0.07 0.00 92 1016.4
20260504221540 52 0 0.0 0.9 0.00 0.11 0.00 100 1016.7
20260504221047 50 178 0.0 1.7 0.00 0.07 0.00 92 1016.4
20260504220551 50 178 0.9 1.7 0.00 0.07 0.00 92 1016.4
20260504220047 50 89 0.9 0.9 0.00 0.07 0.00 91 1016.5
20260504220040 52 221 0.9 0.9 0.00 0.11 0.00 100 1016.7
20260504215548 50 145 0.9 0.9 0.00 0.07 0.07 91 1016.4
20260504215047 51 314 0.9 0.9 0.00 0.07 0.07 91 1016.5
20260504214548 51 135 0.9 0.9 0.00 0.07 0.07 91 1016.5
20260504214538 52 0 0.0 0.9 0.00 0.11 0.11 100 1016.8
20260504214046 51 223 0.9 0.9 0.00 0.07 0.07 91 1016.5
20260504213548 51 314 0.0 0.9 0.00 0.07 0.07 91 1016.5
20260504213047 51 178 0.0 1.7 0.00 0.07 0.07 91 1016.5
20260504213036 52 178 0.9 1.7 0.00 0.11 0.11 100 1016.8
20260504212547 51 206 0.0 1.7 0.00 0.07 0.07 91 1016.5
20260504212046 51 269 0.9 1.7 0.00 0.07 0.07 91 1016.5
20260504211556 52 0 0.0 0.9 0.00 0.11 0.11 100 1016.9
20260504211547 51 135 0.0 0.9 0.00 0.07 0.07 91 1016.5
20260504211046 51 178 0.0 1.7 0.00 0.07 0.07 91 1016.7
20260504210547 51 45 0.0 1.7 0.00 0.07 0.07 91 1016.6
20260504210535 51 178 0.9 1.7 0.00 0.07 0.07 90 1016.6
20260504210042 52 265 0.0 0.9 0.00 0.11 0.11 100 1017.0
20260504205546 51 223 0.9 0.9 0.00 0.07 0.07 90 1016.6
20260504205045 52 178 0.0 0.9 0.00 0.07 0.07 90 1016.6
20260504204547 52 314 0.0 0.9 0.00 0.07 0.07 90 1016.6
20260504204539 52 0 0.0 0.9 0.00 0.11 0.11 100 1016.9
20260504204045 52 178 0.0 0.9 0.00 0.07 0.07 90 1016.5
20260504203546 52 223 0.0 0.9 0.00 0.07 0.07 90 1016.4
20260504203045 52 223 0.0 0.9 0.00 0.07 0.07 90 1016.4
20260504203038 52 221 0.0 0.9 0.00 0.11 0.11 100 1016.8
20260504202546 52 135 0.9 0.9 0.00 0.07 0.07 90 1016.4
20260504202045 52 1 0.0 1.7 0.00 0.07 0.07 90 1016.4
20260504201546 52 202 0.9 0.9 0.00 0.07 0.07 90 1016.4
20260504201537 52 0 0.0 0.9 0.00 0.11 0.11 100 1016.7
20260504201044 52 269 0.0 1.7 0.00 0.07 0.07 90 1016.3
20260504200546 52 161 0.9 1.7 0.01 0.07 0.07 89 1016.2
20260504200044 52 206 0.0 1.7 0.01 0.07 0.07 89 1016.2
20260504200036 54 196 0.9 0.9 0.00 0.11 0.11 100 1016.6
20260504195546 53 178 0.9 1.7 0.01 0.06 0.07 88 1016.1
20260504195044 53 135 0.0 0.9 0.01 0.06 0.07 88 1016.1
20260504194546 53 152 0.0 0.9 0.01 0.06 0.07 87 1016.0
20260504194539 54 0.0 0.0 0.00 0.11 0.11 100 1016.4
20260504194044 53 135 0.0 0.9 0.01 0.06 0.07 88 1016.0
20260504193548 53 135 0.0 0.9 0.01 0.06 0.07 87 1015.9
20260504193304 53 135 0.0 1.7 0.01 0.06 0.07 86 1015.9
20260504193041 54 0 0.0 0.9 0.00 0.11 0.11 100 1016.2
20260504192544 53 206 0.9 1.7 0.01 0.06 0.07 86 1015.8
20260504192043 53 314 0.0 1.7 0.01 0.06 0.07 86 1015.8
20260504191545 53 314 0.9 3.5 0.01 0.06 0.06 85 1015.8
20260504191536 54 0 1.7 2.6 0.00 0.11 0.11 100 1016.2
20260504191043 54 223 1.7 3.5 0.00 0.06 0.06 86 1015.7
20260504190813 54 269 0.9 5.2 0.00 0.06 0.06 85 1015.7
20260504190043 54 344 3.5 5.2 0.00 0.06 0.06 83 1015.6
20260504190038 54 272 1.7 5.2 0.00 0.11 0.11 100 1016.1
20260504185545 54 269 1.7 3.5 0.00 0.06 0.06 82 1015.6
20260504185043 54 344 1.7 2.6 0.00 0.06 0.06 82 1015.6
20260504184808 55 32 1.7 2.6 0.00 0.06 0.06 81 1015.6
20260504184544 55 265 0.9 2.6 0.00 0.11 0.11 100 1016.0
20260504184043 55 321 1.7 2.6 0.00 0.06 0.06 80 1015.5
20260504183543 55 1 0.9 3.5 0.00 0.06 0.06 79 1015.5
20260504183043 56 89 0.9 4.3 0.00 0.06 0.06 78 1015.5
20260504183035 55 330 0.9 4.3 0.00 0.11 0.11 75 1015.9
20260504182806 56 220 1.7 4.3 0.00 0.06 0.06 77 1015.4
20260504182042 57 290 1.7 4.3 0.00 0.06 0.06 75 1015.4
20260504181807 57 303 0.9 3.5 0.00 0.06 0.06 75 1015.5
20260504181538 57 0 0.0 4.3 0.00 0.11 0.11 95 1015.8
20260504181259 57 289 1.7 5.2 0.00 0.06 0.06 75 1015.5
20260504180807 58 296 3.5 7.8 0.00 0.06 0.06 74 1015.4
20260504180043 58 312 1.7 7.8 0.00 0.06 0.06 73 1015.5
20260504180039 57 44 3.5 7.0 0.00 0.11 0.11 73 1015.9
20260504175543 58 223 1.7 7.8 0.00 0.06 0.06 76 1015.4
20260504175031 58 219 1.7 7.8 0.00 0.06 0.06 78 1015.4
20260504174543 57 301 1.7 3.5 0.00 0.11 0.11 78 1015.8
20260504174531 58 331 1.7 5.2 0.00 0.06 0.06 78 1015.4
20260504174031 58 254 0.9 1.7 0.00 0.06 0.06 83 1015.4
20260504173530 57 237 0.9 1.7 0.00 0.06 0.06 83 1015.4
20260504173033 53 254 0.9 2.6 0.00 0.11 0.11 100 1015.9
20260504173031 57 250 0.9 2.6 0.00 0.06 0.06 84 1015.4
20260504172758 56 76 1.7 2.6 0.00 0.06 0.06 84 1015.5
20260504172031 56 197 1.7 2.6 0.00 0.06 0.06 84 1015.4
20260504171536 53 280 0.0 2.6 0.00 0.11 0.11 100 1015.8
20260504171524 0 152 0.0 0.0 0.00 0.06 0.06 1015.5
20260504171002 0 0.0 0.0 0.00 0.06 0.06 1015.4
20260504170722 0 0.0 0.0 0.00 0.06 0.06 1015.4
20260504170228 0 0.0 0.0 0.00 0.06 0.06 1015.4
20260504151002 54 152 0.0 0.9 0.01 0.06 0.05 90 1015.5
20260504150727 54 152 0.0 0.9 0.01 0.06 0.06 90 1015.6
20260504140932 54 178 0.0 1.7 0.01 0.05 0.04 90 1015.7
20260504140657 0 178 1.7 1.7 0.01 0.05 0.05 1015.8
20260504130425 55 206 0.9 0.9 0.03 0.03 0.03 84 1015.6
20260504110423 56 24 1.7 3.5 0.00 0.02 0.00 79 1015.7
20260504110413 57 251 1.7 3.5 0.00 0.02 0.00 79 1015.6
20260504100421 59 290 0.9 3.5 0.00 0.02 0.00 72 1015.4
20260504090142 55 330 1.7 2.6 0.00 0.02 0.00 89 1015.4
20260504081918 53 109 0.9 1.7 0.00 0.02 0.00 94 1015.6
20260504081535 52 0 0.0 1.7 0.00 0.89 0.00 100 1015.9
20260504081418 53 314 0.9 1.7 0.00 0.02 0.00 94 1015.6
20260504080918 53 324 1.7 1.7 0.00 0.02 0.00 94 1015.5
20260504080418 52 223 0.9 1.7 0.00 0.02 0.00 94 1015.5
20260504050642 47 63 0.9 1.7 0.00 0.02 0.00 94 1014.5
20260504045914 47 1 0.0 1.7 0.00 0.02 0.00 94 1014.5
20260504045414 47 135 0.0 1.7 0.00 0.02 0.00 94 1014.6
20260504044915 47 45 0.0 1.7 0.00 0.02 0.00 94 1014.6
20260504044533 46 144 1.7 1.7 0.00 0.89 0.00 100 1015.1
20260504044414 47 152 0.9 1.7 0.00 0.02 0.00 94 1014.7
20260504043915 47 89 0.9 1.7 0.00 0.02 0.00 94 1014.7
20260504043638 47 89 0.9 1.7 0.00 0.02 0.00 94 1014.7
20260504043041 46 137 0.9 0.9 0.00 0.89 0.00 100 1015.1
20260504042913 47 135 0.9 1.7 0.00 0.02 0.00 94 1014.7
20260504042637 47 109 0.9 1.7 0.00 0.02 0.00 94 1014.7
20260504041914 47 45 0.9 1.7 0.00 0.02 0.00 94 1014.7
20260504041635 47 109 1.7 2.6 0.00 0.02 0.00 94 1014.7
20260504041536 47 0 0.0 1.7 0.00 0.89 0.00 100 1015.2
20260504040913 47 28 1.7 2.6 0.00 0.02 0.00 94 1014.7
20260504040413 47 135 0.9 2.6 0.00 0.02 0.00 94 1014.8
20260504040041 47 0 0.0 0.9 0.00 0.89 0.00 100 1015.1
20260504035913 47 128 1.7 2.6 0.00 0.02 0.00 94 1014.8
20260504035413 47 28 0.9 1.7 0.00 0.02 0.00 94 1014.8
20260504034913 47 178 0.0 2.6 0.00 0.02 0.00 94 1014.8
20260504034538 0 3.5 0.0 0.00 0.89 0.00 1015.1
20260504034413 47 135 1.7 3.5 0.00 0.02 0.00 94 1014.7
20260504033915 47 216 0.9 3.5 0.00 0.02 0.00 94 1014.7
20260504033413 47 168 0.9 2.6 0.00 0.02 0.00 94 1014.8
20260504033033 47 162 0.9 0.9 0.00 0.89 0.00 100 1015.1
20260504032913 47 161 1.7 1.7 0.00 0.02 0.00 94 1014.7
20260504032412 47 213 0.0 1.7 0.00 0.02 0.00 94 1014.7
20260504032131 47 45 0.9 1.7 0.00 0.02 0.00 94 1014.8
20260504031539 47 162 0.9 1.7 0.00 0.89 0.00 100 1015.1
20260504031412 48 178 0.9 3.5 0.00 0.02 0.00 94 1014.7
20260504030912 48 223 0.9 3.5 0.00 0.02 0.00 94 1014.7
20260504030640 48 157 2.6 2.6 0.00 0.02 0.00 94 1014.7
20260504030040 47 150 1.7 1.7 0.00 0.89 0.00 100 1015.1
20260504025911 47 171 1.7 1.7 0.00 0.02 0.00 93 1014.7
20260504025412 47 234 0.9 1.7 0.00 0.02 0.00 93 1014.8
20260504024911 48 269 0.0 2.6 0.00 0.02 0.00 93 1014.7
20260504024535 47 0 0.0 1.7 0.00 0.89 0.00 100 1015.2
20260504024411 48 241 0.9 2.6 0.00 0.02 0.00 94 1014.8
20260504023912 48 161 1.7 2.6 0.00 0.02 0.00 93 1014.8
20260504023630 48 165 1.7 1.7 0.00 0.02 0.00 93 1014.8
20260504023039 48 0 0.0 0.9 0.00 0.89 0.00 100 1015.3
20260504022911 48 152 0.0 1.7 0.00 0.02 0.00 93 1014.8
20260504022411 48 157 0.9 2.6 0.00 0.02 0.00 93 1014.8
20260504021911 48 142 1.7 2.6 0.00 0.02 0.00 93 1014.8
20260504021537 48 153 0.9 1.7 0.00 0.89 0.00 100 1015.3
20260504021411 48 157 1.7 2.6 0.00 0.02 0.00 93 1014.9
20260504020910 48 152 0.9 1.7 0.00 0.02 0.00 93 1014.9
20260504020411 48 117 0.9 1.7 0.00 0.02 0.00 93 1014.9
20260504020036 48 0 0.0 0.9 0.00 0.89 0.00 100 1015.3
20260504015910 48 152 0.0 1.7 0.00 0.02 0.00 93 1014.9
20260504015636 48 206 0.9 2.6 0.00 0.02 0.00 93 1014.9
20260504015138 48 145 1.7 2.6 0.00 0.02 0.00 92 1014.9
20260504014540 49 0 0.0 0.9 0.00 0.89 0.00 100 1015.4
20260504014411 49 117 0.0 1.7 0.00 0.02 0.00 92 1014.9
20260504013910 49 135 0.0 0.9 0.00 0.02 0.00 92 1014.9
20260504013410 49 145 0.9 0.9 0.00 0.02 0.00 92 1015.1
20260504013041 49 0 0.0 0.9 0.00 0.89 0.00 100 1015.4
20260504012910 49 223 0.0 0.9 0.00 0.02 0.00 92 1015.1
20260504012410 49 1 0.0 0.9 0.00 0.02 0.00 92 1015.1
20260504011910 49 1 0.0 0.9 0.00 0.02 0.00 92 1015.0
20260504011540 49 221 0.9 0.9 0.00 0.89 0.00 100 1015.5
20260504011409 49 161 0.9 0.9 0.00 0.02 0.00 92 1015.0
20260504010908 49 152 0.0 0.9 0.00 0.02 0.00 92 1015.1
20260504010409 49 314 0.0 0.9 0.00 0.02 0.00 92 1015.1
20260504010040 49 0 0.0 0.9 0.00 0.89 0.00 100 1015.5
20260504005906 50 1 0.0 1.7 0.00 0.02 0.00 92 1015.1
20260504005405 50 117 0.0 1.7 0.00 0.02 0.00 92 1015.1
20260504004903 50 178 0.0 0.9 0.00 0.02 0.00 91 1015.0
20260504004538 50 0.0 0.9 0.00 0.89 0.00 100 1015.6
20260504004402 50 1 0.0 0.9 0.00 0.02 0.00 91 1015.1
20260504003903 50 89 0.0 0.9 0.00 0.02 0.00 91 1015.1
20260504003402 50 89 0.0 0.9 0.00 0.02 0.00 91 1015.0
20260504003035 50 0 0.0 0.9 0.00 0.89 0.00 100 1015.5
20260504002904 50 178 0.0 0.9 0.00 0.02 0.00 91 1015.1
20260504002402 50 135 0.0 0.9 0.00 0.02 0.00 91 1015.1